Home > Weather > Canada > Prince George > Past weeks

Flag for Canada Weather past 2 weeks in Prince George, British Columbia, Canada

30 °F

Mostly cloudy.

Feels Like: 30 °F
Forecast: 17 / 27 °F
Wind: 2 mph from North

Location: Prince George

Current Time: Dec 2, 2015 at 12:03:27 AM

Latest Report: Dec 1, 2015 at 11:00 PM

Visibility: 9 mi

Pressure: 29.72 "Hg (27.66 "Hg at 573m altitude)

Humidity: 93%

Dew point: 28 °F

Location of Prince GeorgeLocation

Historic Weather in Prince George — Graph


Prince George temperature yesterday

Maximum temperature yesterday: 30 °F (at 1:00 PM)
Minimum temperature yesterday: 9 °F (at 12:00 AM)
Average temperature yesterday: 22 °F

Past Weeks' High & Low Weather Summary

High36 °F (Nov 22, 1:00 PM)100% (Nov 17, 3:00 AM)30.76 "Hg (Nov 17, 3:00 AM)
Low-2 °F (Nov 27, 7:56 AM)49% (Nov 24, 1:00 PM)29.32 "Hg (Nov 17, 12:00 PM)
Average17 °F84%30.29 "Hg
* Reported Nov 16 10:00 PM — Dec 1 10:00 PM, Prince George, Weather by CustomWeather, © 2015

Note: Actual official high and low records may vary slightly from our data, if they occured in-between our weather recording intervals... More about our weather records


Prince George weather history for previous 24 hours

Time TempWeatherWind HumidityBarometerVisibility
10:00 PM
Tue, Dec 1
30 °FMostly cloudy.5 mph86%29.75 "Hg9 mi
9:00 PM30 °FMostly cloudy.5 mph86%29.78 "Hg9 mi
7:00 PM27 °FMostly cloudy.5 mph93%29.84 "Hg9 mi
6:00 PM28 °FMostly cloudy.6 mph86%29.85 "Hg9 mi
5:00 PM30 °FOvercast.5 mph80%29.88 "Hg9 mi
4:00 PM30 °FOvercast.10 mph80%29.92 "Hg9 mi
3:00 PM30 °FMostly cloudy.9 mph80%29.94 "Hg9 mi
2:00 PM30 °FPassing clouds.10 mph75%29.97 "Hg9 mi
1:00 PM30 °FSunny.7 mph75%29.99 "Hg9 mi
12:00 PM27 °FSunny.5 mph86%30.02 "Hg9 mi
11:00 AM27 °FPassing clouds.9 mph86%30.04 "Hg9 mi
10:00 AM25 °FSunny.5 mph93%30.06 "Hg9 mi
9:00 AM19 °FPassing clouds.6 mph100%30.06 "Hg9 mi
8:00 AM19 °FOvercast.5 mph93%30.06 "Hg9 mi
7:00 AM19 °FPassing clouds.5 mph100%30.06 "Hg9 mi
6:00 AM21 °FPassing clouds.8 mph93%30.05 "Hg9 mi
5:00 AM19 °FOvercast.6 mph100%30.05 "Hg9 mi
4:00 AM14 °FIce fog.3 mph92%30.07 "Hg6 mi
3:00 AM12 °FIce fog.5 mph92%30.08 "Hg4 mi
2:55 AM12 °FIce fog.6 mph92%30.07 "Hg5 mi
2:00 AM10 °FIce fog.No wind92%30.06 "Hg2 mi
1:00 AM12 °FIce fog.6 mph85%30.06 "Hg3 mi
12:00 AM9 °FIce fog.6 mph92%30.07 "Hg1 mi
Weather by CustomWeather, © 2015

See weather overviewHow to use our weather pages